Startseite
Über Mich
AHP4
Galerie
Sehschlangen
Tourenbuch
Bookmarks
Elektronik
Bewertung
Geschichten
[Tagesmessung] [Jahreswerte] [Information]

Messwerte vom 10.04.2022

Die letzten Messwerte von 23:58:47 Uhr:
KategorieMesswert
Temperatur [°C]3
Luftdruck [mBar]1004
Sonneneinstrahlung0
Wind [km/h]1 aus West
Niederschlag [l/m²]0
rel.Luftfeucht.96.6%
CO2 [ppm]738

Diagramme
Messwerte vom 10.04.2022
Tagesaggregation
KategorieMinimumMaximumSchnittSumme
Temperatur [°C]1125.2500
Luftdruck [mBar]99610051000.4771
Sonneneinstrahlung248118.3771
Wind [km/h]25
rF [%]4096.681.05
Niederschlag [l/m²]0.2575
CO2 [ppm]401741465.3
Einordnung alsVegetationstag

Messungen an benachbarten Tagen: Zur Jahresaggregation 2022
Tabelle aller Messwerte
UhrzeitTemperatur [°C]Luftdruck [mBar]SonneWind [km/h]RichtungRegen [l/m²]rF [%]CO2 [ppm]
00:01:46 2 996 0 3 O 0 96.6 443
00:04:46 2 996 0 0 O 0 96.6 443
00:07:45 2 996 0 1 S 0 96.6 446
00:10:46 2 997 0 4 S 0 96.6 443
00:13:46 1 996 0 7 W 0 96.6 448
00:16:45 1 996 0 4 N 0 96.6 455
00:19:47 1 997 0 12 NW 0 96.6 456
00:22:46 1 996 0 3 N 0 96.6 451
00:25:45 1 996 0 3 W 0 96.6 442
00:28:48 1 996 0 1 SW 0 96.6 443
00:31:45 1 996 0 2 S 0 96.6 442
00:34:47 1 996 0 5 SW 0 96.6 448
00:37:44 1 997 0 1 S 0 96.6 451
00:40:45 1 996 0 1 SO 0 96.6 451
00:43:47 1 997 0 3 SW 0 96.6 449
00:46:46 1 997 0 1 NW 0 96.6 451
00:49:47 1 996 0 1 NW 0 96.6 452
00:52:46 1 997 0 2 NW 0 96.6 448
00:55:46 1 997 0 1 NW 0 96.6 451
00:58:46 1 997 0 0 S 0 96.6 454
01:01:46 1 997 0 2 S 0 96.6 448
01:04:47 1 997 0 4 S 0 96.6 452
01:07:48 1 996 0 5 SO 0 96.6 442
01:10:47 1 997 0 12 SW 0 96.6 448
01:13:47 1 997 0 5 SO 0 96.6 448
01:16:45 1 997 0 1 SW 0 96.6 451
01:19:45 1 997 0 4 S 0 96.6 451
01:22:48 1 997 0 5 SW 0 96.6 448
01:25:47 1 997 0 2 SO 0 96.6 442
01:28:47 1 997 0 1 NO 0 96.6 443
01:31:49 1 998 0 0 SW 0 96.6 448
01:34:45 1 997 0 2 N 0 96.6 454
01:37:46 1 997 0 7 NW 0 96.6 448
01:40:45 1 997 0 4 SW 0 96.6 451
01:43:46 1 997 0 7 NW 0 96.6 446
01:46:47 1 997 0 5 SO 0 96.6 445
01:49:47 2 997 0 6 SW 0 96.6 443
01:52:47 2 998 0 5 SW 0 96.6 437
01:55:46 2 997 0 3 N 0 96.6 445
01:58:46 2 997 0 2 SW 0 96.6 443
02:01:48 2 997 0 5 SW 0 96.6 442
02:04:49 2 997 0 8 SO 0 96.6 440
02:07:48 2 997 0 1 NW 0 96.6 436
02:10:46 2 997 0 4 SO 0 96.6 435
02:13:48 2 997 0 4 NW 0 96.6 431
02:16:49 2 997 0 0 SW 0 96.6 434
02:19:46 2 998 0 2 S 0 96.6 442
02:22:46 2 997 0 4 S 0 96.6 439
02:25:45 2 998 0 1 SO 0 96.6 447
02:28:47 2 997 0 2 SW 0 96.6 442
02:31:48 2 997 0 2 SW 0 96.6 444
02:34:48 2 996 0 3 SW 0 96.6 442
02:37:46 2 997 0 6 S 0 96.6 439
02:40:44 2 997 0 4 N 0 96.6 436
02:43:47 2 997 0 4 W 0 96.6 439
02:46:46 2 997 0 13 NW 0 96.6 442
02:49:46 2 997 0 3 W 0 96.6 439
02:52:46 2 998 0 4 0 96.6 431
02:55:45 2 998 0 1 SW 0 96.6 433
02:58:49 2 997 0 1 NW 0 96.6 439
03:01:48 2 997 0 0 NO 0 96.6 442
03:04:49 2 998 0 9 NW 0 96.6 439
03:07:47 2 997 0 3 SO 0 96.6 445
03:10:47 2 997 0 5 S 0 96.6 448
03:13:47 2 997 0 1 SO 0 96.6 451
03:16:47 2 997 0 3 NW 0 96.6 445
03:19:46 2 998 0 2 NW 0 96.6 433
03:22:46 2 998 0 0 S 0 96.6 436
03:25:48 2 998 0 2 SO 0 96.6 437
03:28:47 2 997 0 11 W 0 96.6 442
03:31:49 3 998 0 6 SO 0 96.6 445
03:34:47 3 998 0 3 O 0 96.6 446
03:37:46 3 998 0 3 NO 0 96.6 443
03:40:47 3 997 0 1 NW 0 96.6 446
03:43:46 3 998 0 9 SW 0 96.6 445
03:46:47 3 998 0 1 SO 0 96.6 442
03:49:48 3 998 0 8 SO 0 96.6 445
03:52:46 3 998 0 7 W 0 96.6 445
03:55:47 3 998 0 7 W 0 96.6 448
03:58:46 3 998 0 4 SW 0 96.6 442
04:01:46 2 998 0 2 S 0 96.6 440
04:04:48 2 998 0 6 W 0 96.6 436
04:07:48 2 998 0 8 W 0 96.6 439
04:11:03 2 998 0 8 SW 0 96.6 439
04:13:46 2 998 0 6 SW 0 96.6 443
04:16:46 2 998 0 5 S 0 96.6 436
04:19:45 2 998 0 6 0 96.6 445
04:22:47 2 998 0 2 SW 0 96.6 445
04:25:45 2 998 0 5 N 0 96.6 448
04:28:45 2 998 0 8 S 0 96.5 443
04:31:44 2 998 0 4 S 0 96.4 444
04:34:46 2 998 0 6 NO 0 96.4 439
04:37:47 3 998 0 1 SW 0 96.4 439
04:40:48 3 998 0 3 SW 0 96.4 448
04:43:46 3 998 0 5 O 0 96.4 448
04:46:46 3 998 0 7 SW 0 96.3 454
04:49:47 3 998 0 4 SW 0 96.2 444
04:52:46 3 998 0 2 NO 0 96.1 448
04:55:45 3 998 0 7 N 0 96 445
04:58:47 3 998 0 4 SW 0 96.1 443
05:01:47 3 998 0 12 S 0 96.1 442
05:04:46 3 998 0 6 W 0 95.9 434
05:07:45 3 998 0 7 W 0 95.8 439
05:10:45 3 998 0 1 W 0 95.6 442
05:13:46 3 998 0 6 W 0 95.6 442
05:16:47 3 998 0 7 W 0 95.6 437
05:19:46 3 998 0 4 SO 0 95.6 436
05:22:46 3 998 0 7 SW 0 95.5 445
05:25:47 3 998 0 6 SW 0 95.7 442
05:28:46 3 998 0 2 W 0 95.7 443
05:31:47 3 998 0 17 S 0 95.7 439
05:34:47 3 998 0 7 NW 0 95.7 437
05:37:47 3 998 0 8 SW 0 95.6 437
05:40:46 3 998 0 4 SW 0 95.6 436
05:43:47 3 998 0 8 NW 0 95.6 437
05:46:47 3 998 0 3 SW 0 95.7 440
05:49:47 3 998 0 17 SW 0 95.7 445
05:52:45 3 998 0 4 W 0 95.7 445
05:55:46 3 998 0 4 0 95.7 446
05:58:45 3 998 0 10 S 0 95.7 440
06:01:46 3 998 0 6 SO 0 95.7 440
06:04:49 3 998 0 8 SW 0 95.7 446
06:07:49 3 998 0 5 W 0 95.8 442
06:10:49 3 998 0 4 SW 0 95.8 439
06:13:46 3 998 4 10 W 0 95.8 434
06:16:46 3 998 5 5 SW 0 95.8 440
06:19:46 3 998 7 2 W 0 95.8 439
06:22:48 3 998 9 8 NW 0 95.9 442
06:25:47 3 998 15 6 W 0 95.9 439
06:28:50 3 998 25 4 NW 0 95.9 439
06:31:48 3 998 31 10 SW 0 95.8 436
06:34:49 3 999 48 3 SW 0 95.5 437
06:37:49 3 998 41 8 W 0 95.2 442
06:40:47 3 998 47 10 W 0 94.9 440
06:43:45 3 999 56 4 W 0 94.9 440
06:46:45 3 998 65 7 W 0 94.7 448
06:49:47 3 998 72 5 NO 0 94.5 452
06:52:46 3 998 65 15 W 0 94.2 449
06:55:49 3 998 56 15 SW 0 93.9 448
06:58:49 3 999 80 18 NW 0 93.4 442
07:01:46 3 999 92 3 SW 0 93.1 430
07:04:48 3 999 77 8 S 0 93.2 434
07:07:48 3 999 106 14 W 0 93.3 436
07:10:47 3 998 126 3 W 0 93.3 442
07:13:47 3 998 132 4 SW 0 93.4 448
07:16:47 3 998 153 10 SW 0 93.1 442
07:19:47 3 999 144 6 SW 0 93.1 436
07:22:50 3 999 129 13 SW 0 92.9 434
07:25:47 3 999 141 9 W 0 92.7 436
07:28:48 3 999 173 9 SW 0 92.8 433
07:31:48 3 999 172 10 SW 0 92.8 437
07:34:47 3 999 178 5 SW 0 92.9 434
07:37:48 3 999 184 11 NW 0 93 431
07:40:50 3 999 168 10 SW 0 92.9 428
07:43:51 3 999 190 11 SW 0 92.6 434
07:46:51 3 999 176 8 W 0 92.3 433
07:49:48 3 999 193 10 W 0 92.2 435
07:52:47 3 999 193 5 SW 0 92.3 433
07:55:49 3 1000 189 8 W 0 93 430
07:58:47 3 1000 180 9 W 0 93.7 430
08:01:50 3 1000 156 8 SW 0 93.8 434
08:04:46 3 1000 171 5 W 0 93.9 427
08:07:46 3 1000 174 3 W 0 94.4 424
08:10:51 3 1000 183 4 SW 0 95 433
08:13:48 3 999 187 6 SW 0 95.5 439
08:16:47 3 999 165 3 N 0 95.7 442
08:19:48 3 999 184 3 SW 0 95.7 442
08:22:47 3 999 199 5 NW 0 95.4 444
08:25:49 3 999 191 11 SW 0 95.3 444
08:28:49 3 1000 196 3 W 0 95.2 442
08:31:49 3 999 204 11 SW 0 95 439
08:34:49 4 1000 198 11 SO 0 94.8 433
08:37:48 4 999 209 6 SW 0 93.8 434
08:40:47 4 999 206 2 SO 0 93.1 434
08:43:49 4 999 196 9 S 0 93.5 430
08:46:50 4 1000 203 6 W 0 92.2 427
08:49:48 4 999 203 7 SO 0 91.9 427
08:52:48 4 1001 201 6 NW 0 91.5 433
08:55:48 4 999 203 8 SW 0 91.3 442
08:58:48 4 999 207 2 S 0 91.2 439
09:01:47 4 999 199 11 W 0 90.4 436
09:04:48 4 1000 197 8 S 0 89.2 430
09:07:49 4 1000 211 12 SW 0 89.3 424
09:10:51 5 1000 207 12 W 0 89.7 424
09:13:49 5 1000 208 5 SO 0 88.6 419
09:16:48 5 1000 208 8 NW 0 88 421
09:19:47 5 1000 200 4 S 0 88.4 428
09:22:50 5 1000 209 2 W 0 87.2 433
09:25:49 5 999 208 12 W 0 85.5 422
09:28:50 5 1001 199 11 SW 0 85.4 422
09:31:47 5 1000 211 16 W 0 85.5 430
09:34:48 5 1000 208 6 N 0 85.8 427
09:37:54 5 1000 207 8 SW 0 85.2 433
09:40:49 5 1000 213 11 SW 0 85 430
09:43:47 5 1000 207 9 S 0 84.9 421
09:46:50 5 999 215 5 NW 0 83.3 427
09:49:49 6 999 216 1 NW 0 83.2 428
09:52:49 6 1001 213 19 SW 0 80.2 424
09:55:46 6 1000 215 9 W 0 79.7 424
09:58:45 6 1001 214 15 S 0 79.1 427
10:01:49 6 1000 217 8 SW 0 79.1 427
10:04:49 6 1001 215 12 SW 0 79.3 425
10:07:49 6 1000 222 11 W 0 78.9 425
10:10:50 6 1000 220 8 W 0 78.8 422
10:13:52 6 1001 221 9 SW 0 78.4 427
10:16:48 6 1000 225 11 NW 0 78.4 428
10:19:48 7 1000 222 8 W 0 78.6 424
10:22:47 7 1000 223 12 W 0 76.7 424
10:25:48 7 1001 211 7 SW 0 75.5 431
10:28:50 7 1001 213 20 SW 0 75.7 428
10:31:49 7 1001 216 15 SW 0 74.1 427
10:34:50 7 1000 222 17 O 0 74.8 421
10:37:48 7 1001 215 8 W 0 75.5 427
10:40:49 7 1000 217 9 SW 0 75.4 427
10:43:47 7 1001 217 19 SW 0 75.3 427
10:46:48 7 1001 216 5 SW 0 74.5 424
10:49:47 7 1001 217 9 W 0 73.2 427
10:52:48 7 1001 219 7 W 0 74.4 427
10:55:47 7 1001 222 5 SW 0 74.4 427
10:58:50 8 1001 225 13 NW 0 72.8 428
11:01:46 8 1001 221 5 W 0 71.6 419
11:04:47 8 1000 223 14 W 0 69.5 409
11:07:47 7 1001 206 17 SW 0 69.2 413
11:10:47 7 1001 194 6 SW 0 69.8 421
11:13:47 7 1001 209 7 S 0 71.2 436
11:16:45 7 1001 215 14 W 0 71.7 427
11:19:47 7 1001 221 4 SW 0 71.5 426
11:22:47 7 1001 206 11 W 0 71.9 419
11:25:47 7 1001 197 8 W 0 70.8 419
11:28:48 7 1001 207 10 SW 0 71 416
11:31:51 6 1001 207 4 W 0 71.9 422
11:34:49 6 1002 210 2 SW 0 72.5 422
11:37:46 6 1001 220 6 W 0 74.7 418
11:40:51 7 1001 228 14 NO 0 75 416
11:43:49 8 1000 221 9 NW 0 70.4 419
11:46:48 8 1001 220 20 SW 0 69.6 416
11:49:47 8 1001 222 6 S 0 67.9 419
11:52:47 7 1001 221 9 SW 0 68.6 424
11:55:48 7 1001 224 8 SO 0 69.1 423
11:58:48 7 1002 223 4 S 0 69.4 422
12:01:47 7 1001 224 11 W 0 70.8 419
12:04:47 8 1002 218 10 W 0 70.6 422
12:07:49 8 1002 223 6 W 0 68.9 422
12:10:45 8 1001 227 5 S 0 67.7 422
12:13:51 8 1001 229 9 W 0 67.1 420
12:16:49 8 1001 227 13 SW 0 66.1 419
12:19:48 9 1001 227 17 W 0 65.1 419
12:22:50 9 1002 228 10 NW 0 64.4 421
12:25:47 9 1001 230 11 S 0 63.9 419
12:28:47 9 1000 226 13 S 0 61.9 416
12:31:49 9 1001 228 17 S 0 60.8 415
12:34:49 9 1002 226 9 S 0 63.3 413
12:37:32 8 1001 220 6 O 0 53.8 413
12:40:47 9 1001 212 19 W 0 66.5 415
12:43:49 9 1001 221 3 NW 0 67.8 422
12:46:51 10 1001 227 9 SW 0 66.2 425
12:49:50 11 1002 225 6 SW 0 63.2 428
12:52:47 11 1001 218 10 S 0 63.1 421
12:55:49 11 1001 217 16 N 0 58.6 422
12:58:49 11 1001 216 11 W 0 57.2 421
13:01:48 11 1000 216 8 S 0 56.4 425
13:04:50 12 1001 221 7 NO 0 55.8 424
13:07:52 12 1001 224 10 W 0 52.2 426
13:10:47 12 1000 228 7 W 0 53.2 421
13:13:47 11 1002 221 5 W 0 53.7 419
13:16:47 11 1000 220 12 S 0 53.2 415
13:19:48 10 1002 230 7 NW 0 57.1 416
13:22:48 10 1002 229 10 W 0 57.9 413
13:25:47 11 1001 215 4 W 0 57.1 413
13:28:49 10 1001 213 6 NW 0 56.5 418
13:31:47 9 1001 215 8 W 0 56.3 419
13:34:49 9 1001 222 10 SW 0 59.3 416
13:37:49 10 1002 226 16 S 0 58.9 410
13:40:48 10 1001 230 7 SO 0 58 413
13:43:49 11 1001 230 6 NW 0 56.8 410
13:46:48 11 1001 218 8 W 0 55.5 414
13:49:50 10 1001 225 11 NW 0 54.7 416
13:52:31 9 1001 232 2 SO 0 47.7 419
13:55:46 10 1001 229 18 W 0 57.2 416
13:58:46 11 1001 235 11 SO 0 56.3 419
14:01:49 11 1001 231 7 SW 0 52.9 419
14:04:32 9 1001 235 7 SW 0 40 419
14:07:48 12 1001 233 9 NW 0 56 419
14:10:49 11 1001 201 19 W 0 53.5 413
14:13:49 10 1002 220 10 N 0 56.3 411
14:16:48 9 1002 227 8 NW 0 61.5 407
14:19:53 9 1002 228 10 NW 0 62.5 408
14:22:50 9 1002 234 13 NW 0 64.6 404
14:25:49 9 1003 237 5 SW 0 65.5 407
14:28:51 10 1001 233 7 SW 0 62.3 416
14:31:48 11 1001 231 15 W 0 60 417
14:34:49 11 1002 241 13 W 0 60.1 413
14:37:49 12 1002 242 14 N 0 58.9 407
14:40:33 10 1002 229 12 NW 0 51.9 413
14:43:47 12 1002 208 6 S 0 55.2 413
14:46:48 10 1001 212 13 W 0 54.8 416
14:49:47 10 1001 234 9 W 0 59.3 413
14:52:46 10 1002 233 8 0 62.1 413
14:55:48 10 1002 245 5 NW 0 63.3 419
14:58:49 11 1001 243 21 SO 0 58.3 422
15:01:48 12 1003 244 9 S 0 57.7 416
15:04:48 12 1002 244 11 SW 0 55.1 410
15:07:48 12 1001 245 13 W 0 53.6 401
15:10:49 12 1001 237 9 NW 0 54.1 407
15:13:48 12 1002 245 9 SW 0 54 407
15:16:49 12 1002 235 7 S 0 52.8 407
15:19:48 12 1002 240 5 O 0 52.9 404
15:22:47 11 1002 246 15 O 0 56.7 407
15:25:48 12 1002 245 18 S 0 58 404
15:28:31 11 1002 234 15 SW 0 45.8 404
15:31:50 11 1002 229 13 SW 0 57.7 404
15:34:48 10 1002 228 7 W 0 58.9 407
15:37:48 9 1002 230 3 NO 0 61.3 405
15:40:50 9 1002 231 2 SW 0 63.2 404
15:43:47 9 1002 231 14 S 0 64.3 407
15:46:49 9 1002 245 14 W 0 65.2 408
15:49:48 9 1003 233 8 SW 0 64.5 407
15:52:48 9 1002 228 11 S 0 63.4 407
15:55:47 9 1002 227 4 W 0 61.6 404
15:58:32 8 1002 215 2 S 0 54.6 407
16:01:48 8 1002 198 15 W 0 65.7 408
16:04:50 8 1002 171 10 W 0 70.2 407
16:07:49 6 1002 209 14 SW 0 76.4 404
16:10:48 5 1002 229 4 W 0 82.6 407
16:13:51 5 1002 240 10 NW 0 86.1 407
16:16:47 5 1002 247 15 W 0 86.7 410
16:19:49 6 1002 247 7 NW 0 86 407
16:22:50 7 1002 247 8 SO 0 85.4 404
16:25:47 7 1002 247 11 W 0 84.2 407
16:28:48 8 1002 247 14 W 0 77.8 404
16:31:48 8 1002 247 6 W 0 75.5 407
16:34:47 8 1002 247 7 W 0 72.5 407
16:37:48 8 1002 247 8 S 0 71.9 404
16:40:50 8 1002 247 21 W 0 69.2 404
16:43:48 9 1002 247 2 W 0 69.3 404
16:46:46 9 1002 247 12 W 0 69.6 404
16:49:33 7 1002 247 8 NW 0 62.2 407
16:52:49 9 1002 247 17 NW 0 63.2 404
16:55:49 9 1002 247 25 W 0 64.5 404
16:58:50 9 1002 231 6 NW 0 64.6 407
17:01:48 9 1002 218 14 W 0 64.4 404
17:04:49 9 1002 229 10 NW 0 64 405
17:07:48 9 1002 248 6 W 0 65.4 404
17:10:48 9 1002 248 13 NW 0 65.8 404
17:13:48 10 1002 224 7 0 64.4 405
17:16:48 10 1002 247 4 W 0 63.6 407
17:19:49 10 1002 247 12 SW 0 61.6 404
17:22:49 10 1002 248 2 NO 0 62.4 404
17:25:47 11 1002 248 7 W 0 60 407
17:28:51 11 1002 237 8 W 0 59 408
17:31:47 11 1002 247 9 W 0 59.4 407
17:34:51 11 1002 247 13 NW 0 56.7 404
17:37:48 11 1002 247 16 NW 0 56.5 407
17:40:50 12 1002 247 12 NW 0 53.8 404
17:43:51 11 1002 229 8 NW 0 54.5 404
17:46:35 10 1002 229 10 W 0 46.8 405
17:49:49 10 1002 233 7 SW 0 58.1 404
17:52:47 9 1002 204 9 W 0 57.6 405
17:55:48 9 1003 193 6 NW 0 58.6 406
17:58:47 9 1002 208 9 W 0 60.7 407
18:01:49 8 1002 196 7 W 0 63.7 408
18:04:50 8 1002 186 9 W 0 64.8 406
18:07:49 8 1002 200 5 SW 0 65.8 409
18:10:47 8 1002 245 9 N 0 66.7 413
18:13:47 9 1002 247 7 W 0 67.6 413
18:16:46 10 1002 246 4 O 0 66.1 410
18:19:50 10 1002 247 1 SW 0 62.1 413
18:22:48 11 1002 247 3 SO 0 62 419
18:25:50 11 1002 246 2 W 0 60.9 419
18:28:48 11 1002 245 8 W 0 60.1 418
18:31:49 11 1002 243 14 SW 0 60.5 413
18:34:49 11 1002 238 3 N 0 59.8 416
18:37:51 10 1002 223 5 SW 0 58.9 416
18:40:48 10 1002 222 2 SW 0 60.7 424
18:43:52 9 1002 224 11 NW 0 63 408
18:46:47 9 1002 163 4 SW 0 64.2 410
18:49:48 9 1002 148 4 W 0 65.4 436
18:52:48 9 1002 233 5 NW 0 66.3 428
18:55:49 9 1002 242 6 SW 0 67.9 452
18:58:48 10 1002 181 2 NW 0 65.5 448
19:01:49 10 1003 189 5 W 0 64.4 446
19:04:47 9 1002 226 4 S 0 64 431
19:07:46 9 1002 224 5 NW 0 63.1 434
19:10:51 9 1002 223 10 W 0 64.2 450
19:13:49 8 1002 230 6 S 0 65.6 446
19:16:47 8 1003 205 21 W 0 65.9 439
19:19:49 8 1002 232 16 W 0 65.2 431
19:22:48 7 1002 199 9 N 0 65.7 428
19:25:49 7 1002 215 11 W 0 65.9 457
19:28:49 7 1002 200 5 SW 0 65.8 455
19:31:48 7 1002 221 11 W 0 66.2 461
19:34:47 7 1003 179 0 S 0 66.2 472
19:37:50 7 1003 175 2 SO 0 67.1 484
19:40:48 7 1003 169 2 SO 0 67.6 490
19:43:48 7 1003 163 0 SW 0 67.2 495
19:46:46 6 1003 160 4 W 0 67.4 495
19:49:48 6 1002 153 3 SW 0 68 495
19:52:47 6 1004 146 2 SW 0 68.6 486
19:55:47 6 1002 137 2 S 0 69.8 493
19:58:50 5 1003 127 7 SW 0 70.7 498
20:01:48 5 1002 115 2 SW 0 71.7 504
20:04:50 5 1003 101 1 SO 0 72.7 501
20:07:50 5 1003 87 3 NW 0 73.8 509
20:10:46 5 1003 73 2 SW 0 74.4 510
20:13:47 5 1003 57 4 S 0 75.1 522
20:16:47 5 1003 44 4 SW 0 76.1 525
20:19:46 5 1003 32 6 O 0 76.6 536
20:22:47 4 1003 22 4 W 0 77.8 536
20:25:48 4 1003 14 5 SW 0 78.8 545
20:28:48 4 1003 9 0 SW 0 79 547
20:31:47 4 1003 5 6 SO 0 80 548
20:34:46 4 1003 3 4 W 0 80.5 554
20:37:47 4 1003 0 4 S 0 81.3 556
20:40:49 4 1002 0 3 SW 0 81.7 563
20:43:47 4 1002 0 3 SW 0 81.8 556
20:46:50 4 1003 0 6 SW 0 81.8 563
20:49:48 4 1003 0 3 O 0 81.9 564
20:52:49 4 1002 0 8 NW 0 82 568
20:55:48 4 1003 0 5 SW 0 82.1 565
20:58:47 4 1003 0 2 SW 0 82.4 568
21:01:47 4 1003 0 2 SW 0 82.6 572
21:04:45 4 1003 0 2 W 0 83.1 577
21:07:45 4 1003 0 3 W 0 83.4 578
21:10:47 4 1003 0 0 SW 0 83.5 583
21:13:46 4 1003 0 3 S 0 83.9 586
21:16:48 3 1004 0 2 SW 0 84.2 601
21:19:46 3 1003 0 1 SW 0 84.7 600
21:22:46 3 1004 0 3 SW 0 85.3 601
21:25:51 3 1003 0 0 SW 0 85.8 604
21:28:49 3 1003 0 1 SW 0 86.2 609
21:31:48 3 1003 0 1 SW 0 86.5 606
21:34:47 2 1003 0 0 S 0 86.7 616
21:37:47 2 1004 0 0 S 0 87 620
21:40:48 2 1004 0 0 S 0 87.2 621
21:43:47 2 1004 0 0 S 0 87 633
21:46:47 2 1004 0 0 SW 0 87.6 669
21:49:46 2 1004 0 0 SO 0 88.8 673
21:52:46 2 1004 0 0 SO 0 89.9 664
21:55:47 2 1004 0 0 SO 0 90.2 669
21:58:49 2 1004 0 0 SO 0 90 674
22:01:46 2 1004 0 0 SO 0 90.1 677
22:04:48 2 1004 0 0 SW 0 90.6 683
22:07:47 2 1004 0 1 SW 0 91.5 679
22:10:46 2 1004 0 1 SW 0 91.5 681
22:13:45 2 1003 0 0 S 0 91.7 679
22:16:47 2 1004 0 0 SW 0 92.3 679
22:19:48 2 1004 0 1 S 0 92.5 686
22:22:47 2 1004 0 0 S 0 92.5 687
22:25:49 2 1005 0 0 S 0 92.2 686
22:28:47 2 1005 0 1 SO 0 92.3 679
22:31:48 2 1004 0 0 SO 0 93.2 692
22:34:46 1 1004 0 0 W 0 93.2 692
22:37:47 1 1004 0 0 SW 0 93.1 694
22:40:48 1 1004 0 0 O 0 93.1 692
22:43:47 1 1003 0 1 SO 0 92.8 693
22:46:48 1 1004 0 0 S 0 92.7 695
22:49:47 1 1005 0 0 S 0 93.4 697
22:52:52 1 1004 0 0 SO 0 94.4 698
22:55:44 1 1004 0 1 O 0 94.7 703
22:58:51 1 1004 0 0 SW 0 95 700
23:01:50 1 1004 0 0 SO 0 94.4 700
23:04:48 1 1004 0 0 SO 0 94.1 697
23:07:50 1 1004 0 0 S 0 94.1 703
23:10:47 1 1003 0 0 SO 0 94.2 704
23:13:45 2 1004 0 1 W 0 94.5 710
23:16:45 2 1004 0 3 W 0 94.9 712
23:19:47 2 1005 0 3 W 0 94.7 709
23:22:46 2 1005 0 3 W 0 94.7 703
23:25:47 2 1005 0 4 W 0 94.2 715
23:28:47 2 1005 0 3 NW 0 94.4 721
23:31:48 2 1005 0 0 SW 0.2575 93.9 730
23:34:49 2 1005 0 2 SO 0 93.9 736
23:37:48 2 1005 0 0 SO 0 93.9 740
23:40:46 2 1004 0 1 S 0 94 739
23:43:46 2 1005 0 1 S 0 94.5 738
23:46:46 2 1004 0 1 O 0 95.1 739
23:49:49 2 1004 0 2 SO 0 96 739
23:52:45 3 1004 0 1 S 0 96.1 741
23:55:48 3 1004 0 0 SO 0 96.6 739
23:58:47 3 1004 0 1 W 0 96.6 738

Letzte Änderung : 04-Jan-2022
Copyright Jens Köhler, Wolfsburg, Obere Dorfstraße 10d